Weather History for K1P1 - October, 2013

Change the Weather History Date:

Thursday, October 17, 2013

  Actual Average (KLCI) Record (KLCI)
Temperature  
Mean Temperature 58 °F -  
Max Temperature 69 °F 58 °F 75 °F (1999)
Min Temperature 46 °F 38 °F 30 °F (1997)
Degree Days  
Heating Degree Days 8    
Growing Degree Days 8 (Base 50)    
Moisture  
Dew Point 47 °F    
Average Humidity 78    
Maximum Humidity 97    
Minimum Humidity 41    
Precipitation  
Precipitation 0.01 in - - ()
Sea Level Pressure  
Sea Level Pressure 29.80 in    
Wind  
Wind Speed 2 mph (WNW)    
Max Wind Speed 14 mph    
Max Gust Speed 20 mph    
Visibility 9 miles    
Events Rain    
Averages and records for this station are not official NWS values.
T = Trace of Precipitation, MM = Missing Value Source: NWS Daily Summary

Daily Weather History Graph

Daily Weather History Graph

Search for Another Location

Airport or City:

Trip Planner

Search our weather history database for the weather conditions in past years. The results will help you decide how hot, cold, wet, or windy it might be!

Date:

Astronomy

Oct. 17, 2013 Rise Set
Actual Time 7:04 AM EDT 5:59 PM EDT
Civil Twilight 6:35 AM EDT 6:28 PM EDT
Nautical Twilight 6:01 AM EDT 7:02 PM EDT
Astronomical Twilight 5:28 AM EDT 7:35 PM EDT
Moon 5:13 PM EDT (10/17) 5:31 AM EDT (10/17)
Length of Visible Light 11h 53m
Length of Day
10h 55m
Waxing Gibbous, 98% of the Moon is Illuminated
Oct 17
Waxing Gibbous
Oct 18
Full
Oct 26
Last Quarter
Nov 3
New
Nov 10
First Quarter

Hourly Weather History & Observations

Time (EDT) Temp. Dew Point Humidity Pressure Visibility Wind Dir Wind Speed Gust Speed Precip Events Conditions
12:15 AM 49.6 °F 48.2 °F 95% 29.89 in 10.0 mi Calm Calm - N/A   Overcast
12:35 AM 50.0 °F 47.8 °F 92% 29.89 in 10.0 mi Calm Calm - N/A   Overcast
12:55 AM 50.0 °F 48.2 °F 94% 29.89 in 10.0 mi Calm Calm - N/A   Overcast
1:15 AM 50.4 °F 48.2 °F 92% 29.89 in 10.0 mi Calm Calm - N/A   Overcast
1:35 AM 50.4 °F 48.2 °F 92% 29.88 in 10.0 mi Calm Calm - N/A   Overcast
1:55 AM 50.5 °F 48.4 °F 92% 29.89 in 10.0 mi Calm Calm - N/A   Overcast
2:15 AM 50.9 °F 48.4 °F 91% 29.88 in 10.0 mi Calm Calm - N/A   Overcast
2:35 AM 50.7 °F 48.4 °F 92% 29.88 in 10.0 mi Calm Calm - N/A   Overcast
2:55 AM 50.5 °F 48.4 °F 92% 29.87 in 10.0 mi Calm Calm - N/A   Overcast
3:15 AM 50.4 °F 48.4 °F 93% 29.86 in 10.0 mi Calm Calm - N/A   Overcast
3:35 AM 50.0 °F 48.2 °F 94% 29.86 in 10.0 mi Calm Calm - N/A   Overcast
3:55 AM 49.3 °F 47.5 °F 94% 29.84 in 10.0 mi Calm Calm - N/A   Mostly Cloudy
4:15 AM 49.1 °F 47.7 °F 95% 29.84 in 7.0 mi Calm Calm - N/A   Scattered Clouds
4:35 AM 48.4 °F 47.3 °F 96% 29.84 in 4.0 mi Calm Calm - N/A   Scattered Clouds
4:55 AM 47.5 °F 46.4 °F 96% 29.84 in 3.0 mi Calm Calm - N/A   Mostly Cloudy
5:15 AM 47.5 °F 46.4 °F 96% 29.84 in 2.5 mi Calm Calm - N/A   Overcast
5:35 AM 47.3 °F 46.4 °F 97% 29.84 in 4.0 mi Calm Calm - N/A   Overcast
5:55 AM 47.5 °F 46.6 °F 97% 29.83 in 3.0 mi Calm Calm - N/A   Overcast
6:15 AM 47.5 °F 46.6 °F 97% 29.84 in 5.0 mi Calm Calm - N/A   Mostly Cloudy
6:35 AM 46.4 °F 45.7 °F 97% 29.84 in 1.0 mi Calm Calm - N/A   Overcast
6:55 AM 47.5 °F 46.6 °F 97% 29.83 in 5.0 mi Calm Calm - N/A   Overcast
7:15 AM 47.5 °F 46.8 °F 97% 29.83 in 4.0 mi Calm Calm - N/A   Overcast
7:35 AM 47.8 °F 46.9 °F 97% 29.84 in 5.0 mi Calm Calm - N/A   Overcast
7:55 AM 48.2 °F 47.3 °F 97% 29.84 in 7.0 mi Calm Calm - N/A   Overcast
8:15 AM 48.6 °F 47.7 °F 97% 29.85 in 7.0 mi Calm Calm - N/A   Overcast
8:35 AM 49.1 °F 48.2 °F 97% 29.84 in 7.0 mi Calm Calm - N/A   Overcast
8:55 AM 50.0 °F 48.4 °F 94% 29.84 in 10.0 mi Calm Calm - N/A   Mostly Cloudy
9:15 AM 50.4 °F 48.0 °F 92% 29.84 in 10.0 mi Calm Calm - N/A   Scattered Clouds
9:35 AM 51.4 °F 48.4 °F 89% 29.84 in 10.0 mi Calm Calm - N/A   Clear
9:55 AM 54.3 °F 49.6 °F 84% 29.83 in 10.0 mi Calm Calm - N/A   Clear
10:15 AM 56.1 °F 49.8 °F 79% 29.83 in 10.0 mi Calm Calm - N/A   Clear
10:35 AM 57.9 °F 50.9 °F 77% 29.82 in 10.0 mi Calm Calm - N/A   Clear
10:55 AM 60.8 °F 52.0 °F 73% 29.82 in 10.0 mi Calm Calm - N/A   Clear
11:15 AM 65.1 °F 50.4 °F 59% 29.81 in 10.0 mi WNW 8.1 mph - N/A   Clear
11:35 AM 66.2 °F 47.3 °F 51% 29.81 in 10.0 mi WNW 13.8 mph 19.6 mph N/A   Scattered Clouds
11:55 AM 66.7 °F 46.8 °F 49% 29.80 in 10.0 mi WNW 10.4 mph - N/A   Scattered Clouds
12:15 PM 67.8 °F 46.9 °F 47% 29.80 in 10.0 mi NW 11.5 mph - N/A   Scattered Clouds
12:35 PM 67.1 °F 46.0 °F 47% 29.79 in 10.0 mi NW 9.2 mph - N/A   Scattered Clouds
12:55 PM 68.4 °F 46.4 °F 45% 29.79 in 10.0 mi West 10.4 mph 18.4 mph N/A   Scattered Clouds
1:15 PM 67.8 °F 45.9 °F 45% 29.78 in 10.0 mi WNW 9.2 mph - N/A   Scattered Clouds
1:35 PM 68.7 °F 45.1 °F 43% 29.77 in 10.0 mi WNW 8.1 mph - N/A   Clear
1:55 PM 69.1 °F 45.3 °F 42% 29.77 in 10.0 mi West 10.4 mph - N/A   Clear
2:15 PM 68.9 °F 44.8 °F 42% 29.77 in 10.0 mi WNW 8.1 mph 16.1 mph N/A   Clear
2:35 PM 68.9 °F 45.5 °F 43% 29.76 in 10.0 mi WNW 11.5 mph 16.1 mph N/A   Clear
3:15 PM 69.1 °F 44.6 °F 41% 29.76 in 10.0 mi West 5.8 mph - N/A   Clear
3:35 PM 69.3 °F 45.0 °F 42% 29.76 in 10.0 mi West 6.9 mph - N/A   Clear
3:55 PM 68.9 °F 44.1 °F 41% 29.76 in 10.0 mi WNW 5.8 mph - N/A   Clear
4:15 PM 68.9 °F 44.1 °F 41% 29.76 in 10.0 mi WNW 9.2 mph - N/A   Clear
4:35 PM 68.0 °F 43.7 °F 41% 29.76 in 10.0 mi West 6.9 mph - N/A   Clear
4:55 PM 67.5 °F 44.4 °F 43% 29.75 in 10.0 mi WNW 5.8 mph - N/A   Clear
5:15 PM 66.6 °F 43.7 °F 44% 29.76 in 10.0 mi West 5.8 mph - N/A   Clear
5:35 PM 65.5 °F 43.7 °F 45% 29.76 in 10.0 mi West 5.8 mph - N/A   Clear
5:55 PM 62.8 °F 44.8 °F 52% 29.76 in 10.0 mi Calm Calm - N/A   Clear
6:15 PM 59.0 °F 45.7 °F 61% 29.77 in 5.0 mi Calm Calm - N/A   Haze
6:35 PM 55.6 °F 47.8 °F 75% 29.77 in 10.0 mi Calm Calm - N/A   Clear
6:55 PM 53.8 °F 47.7 °F 80% 29.77 in 10.0 mi Calm Calm - N/A   Clear
7:15 PM 52.9 °F 47.1 °F 81% 29.77 in 10.0 mi Calm Calm - N/A   Clear
7:35 PM 50.9 °F 46.9 °F 86% 29.78 in 10.0 mi Calm Calm - N/A   Clear
7:55 PM 49.8 °F 46.0 °F 87% 29.77 in 10.0 mi Calm Calm - N/A   Clear
8:15 PM 49.1 °F 46.4 °F 90% 29.77 in 10.0 mi Calm Calm - N/A   Clear
8:35 PM 48.6 °F 46.6 °F 93% 29.76 in 10.0 mi Calm Calm - N/A   Clear
8:55 PM 48.4 °F 46.6 °F 93% 29.76 in 10.0 mi Calm Calm - N/A   Clear
9:15 PM 46.6 °F 44.8 °F 93% 29.76 in 10.0 mi Calm Calm - N/A   Clear
9:35 PM 47.3 °F 45.7 °F 94% 29.76 in 10.0 mi Calm Calm - N/A   Clear
9:55 PM 47.3 °F 45.1 °F 92% 29.75 in 10.0 mi Calm Calm - N/A   Clear
10:15 PM 47.5 °F 45.5 °F 93% 29.74 in 10.0 mi Calm Calm - N/A   Clear
10:35 PM 47.3 °F 45.3 °F 93% 29.74 in 10.0 mi Calm Calm - N/A   Mostly Cloudy
10:55 PM 47.8 °F 45.7 °F 92% 29.73 in 10.0 mi Calm Calm - N/A   Mostly Cloudy
11:15 PM 48.2 °F 45.9 °F 92% 29.71 in 10.0 mi Calm Calm - N/A   Overcast
11:35 PM 48.4 °F 46.2 °F 92% 29.73 in 10.0 mi West 3.5 mph - N/A   Overcast
11:55 PM 49.1 °F 46.8 °F 92% 29.75 in 7.0 mi Calm Calm - 0.01 in Rain Light Rain